Location: The Saddle
(36.8333°N, 80.3417°W)
Time: 17:54:21
(UTC-05:00)

deb Explorer IX - Visible Passes

Search period start: 22 January 2022 00:00
Search period end: 01 February 2022 00:00
Orbit: 544 x 1082 km, 38.8° (Epoch: 22 January)

Date Brightness Start Highest point End Pass type
(mag) Time Alt. Az. Time Alt. Az. Time Alt. Az.
22 Jan ? 18:15:17 10° WNW 18:19:25 76° SSW 18:23:55 10° ESE visible
22 Jan ? 20:02:13 10° W 20:05:43 23° SSW 20:05:54 23° SSW visible
23 Jan ? 19:36:30 10° W 19:39:54 23° SSW 19:42:07 16° S visible
24 Jan ? 19:10:46 10° W 19:14:06 23° SSW 19:17:40 10° SSE visible
25 Jan ? 18:45:01 10° W 18:48:18 23° SSW 18:51:45 10° SSE visible
26 Jan ? 18:19:13 10° W 18:22:28 23° SSW 18:25:52 10° SSE visible
